[[{"header":{"parameterUnit":"m.s-1","parameterCategory":1,"la1":30.2991,"la2":30.254,"lo1":-89.0895,"lo2":-89.0444,"dy":0.0017,"dx":0.0017,"nx":28,"ny":28,"refTime":"2024-12-21T03:00:00:Z","depth":0,"parameterNumber":2,"parameterNumberName":"U-component_of_WINDS"},"data":[0,0,0,0,0,0,0,0,0,0,0,0,0,0,0,0,0,0,0,0,0,0,0,0,0,0,0,0,0,0,0,0,0,0,0,0,0,0,0,0,0,0,0,0,0,0,0,0,0,0,0,0,0,0,0,0,0,0,-1.2335,-1.2337,0,-1.2528,-1.253,-1.2532,-1.2571,-1.257,-1.2568,-1.2567,-1.2768,-1.2774,-1.2781,0,0,0,0,0,0,0,0,0,0,0,0,0,-1.2001,-1.2007,-1.2334,-1.2337,-1.2339,-1.2527,-1.253,-1.2533,-1.2571,-1.257,-1.2568,-1.2566,-1.2765,-1.2773,-1.2781,0,0,0,0,0,0,0,0,0,0,0,0,0,-1.2165,-1.2009,-1.2334,-1.2381,-1.2387,-1.2527,-1.253,-1.2533,-1.2572,-1.257,-1.2567,-1.2565,-1.2763,-1.2773,-1.2782,-1.289,0,0,-1.2813,-1.2818,0,0,0,0,0,0,0,0,-1.2156,-1.2177,-1.2372,-1.2378,-1.2385,-1.2523,-1.2486,-1.2653,-1.2572,-1.2502,-1.2567,-1.2564,-1.2688,-1.2704,-1.2746,-1.2899,-1.2908,-1.2814,-1.282,-1.2825,-1.2828,0,0,0,0,0,0,0,-1.2144,-1.2169,-1.2411,-1.2375,-1.2383,-1.2393,-1.2414,-1.2518,-1.2605,-1.2508,-1.2511,-1.2533,-1.2691,-1.2736,-1.2751,-1.2911,-1.2814,-1.2823,-1.2829,-1.2833,-1.3162,-1.3164,0,0,0,0,0,0,-1.2124,-1.216,-1.2405,-1.2417,-1.2263,-1.2401,-1.2424,-1.2481,-1.2604,-1.2621,-1.2535,-1.2534,-1.272,-1.2739,-1.2758,-1.2892,-1.2825,-1.2834,-1.284,-1.3159,-1.3162,-1.3165,0,0,0,0,0,0,-1.2117,-1.2146,-1.2397,-1.2289,-1.2322,-1.2409,-1.2472,-1.2486,-1.253,-1.2625,-1.2641,-1.2564,-1.2719,-1.2744,-1.2856,-1.2899,-1.2839,-1.2848,-1.3156,-1.316,-1.3164,-1.316,0,0,0,0,0,0,-1.2107,-1.2143,-1.2184,-1.229,-1.2327,-1.2492,-1.2475,-1.2491,-1.2547,-1.2548,-1.2656,-1.2672,-1.2719,-1.2841,-1.2866,-1.2912,-1.2856,-1.3153,-1.3158,-1.3163,-1.3157,-1.3164,-1.3169,0,0,0,0,0,-1.2095,-1.2176,-1.2186,-1.2216,-1.2381,-1.2494,-1.2516,-1.2567,-1.2551,-1.2593,-1.2654,-1.2669,-1.289,-1.2852,-1.2881,-1.2931,-1.315,-1.3156,-1.3162,-1.3154,-1.3162,-1.3169,0,0,0,0,0,0,-1.2075,-1.2191,-1.2203,-1.2321,-1.2397,-1.2501,-1.2556,-1.2574,-1.2658,-1.2656,-1.2716,-1.274,-1.285,-1.2901,-1.2857,-1.3041,-1.3019,-1.3031,-1.3003,-1.3012,-1.3018,-1.3004,-1.2864,0,0,0,0,0,-1.2084,-1.2165,-1.2263,-1.2357,-1.2394,-1.2468,-1.252,-1.2552,-1.2635,-1.2667,-1.2736,-1.2816,-1.2904,-1.296,-1.3046,-1.3164,-1.3188,-1.3212,-1.3218,-1.3223,-1.3233,-1.33,-1.3311,-1.3185,-1.3185,-1.3185,0,0,-1.2104,-1.2177,-1.2225,-1.2355,-1.2418,-1.2502,-1.2496,-1.2585,-1.2648,-1.2681,-1.2792,-1.2845,-1.2938,-1.3054,-1.3108,-1.31,-1.3273,-1.323,-1.3233,-1.3242,-1.3307,-1.3319,-1.3329,-1.3189,-1.3188,-1.3188,0,0,-1.2183,-1.2246,-1.2332,-1.2395,-1.249,-1.2538,-1.2558,-1.2659,-1.2695,-1.2807,-1.2834,-1.291,-1.3059,-1.3125,-1.3178,-1.328,-1.3297,-1.3306,-1.3339,-1.3403,-1.3413,-1.3422,-1.346,-1.3472,-1.3315,-1.3315,-1.3315,0,-1.2196,-1.2323,-1.2374,-1.2462,-1.2518,-1.255,-1.2638,-1.2697,-1.2815,-1.2854,-1.2842,-1.303,-1.3095,-1.3227,-1.3252,-1.3293,-1.3319,-1.3295,-1.3407,-1.3417,-1.3426,-1.3463,-1.3477,-1.3316,-1.3316,-1.3316,-1.3316,0,-1.2335,-1.2422,-1.248,-1.2593,-1.2655,-1.2743,-1.2807,-1.2864,-1.2891,-1.294,-1.3054,-1.3132,-1.3235,-1.3268,-1.3295,-1.3404,-1.3396,-1.3395,-1.3375,-1.3438,-1.3473,-1.3488,-1.3317,-1.3316,-1.3316,-1.3316,0,0,-1.2409,-1.2547,-1.2568,-1.2619,-1.2726,-1.2795,-1.2883,-1.2982,-1.303,-1.311,-1.3187,-1.3312,-1.3312,-1.3371,-1.3406,-1.3462,-1.3539,-1.3455,-1.3458,-1.3469,-1.3664,-1.3665,-1.368,-1.355,-1.3553,-1.3555,-1.3656,0,-1.2503,-1.2661,-1.2709,-1.2842,-1.2924,-1.2955,-1.3032,-1.3106,-1.3154,-1.3231,-1.3284,-1.3372,-1.3365,-1.3401,-1.3458,-1.3517,-1.3579,-1.351,-1.3623,-1.3626,-1.36,-1.3698,-1.37,-1.3792,-1.367,-1.3673,-1.3674,0,-1.2633,-1.2714,-1.2856,-1.2951,-1.2987,-1.3056,-1.315,-1.3223,-1.3307,-1.3338,-1.3404,-1.3434,-1.3528,-1.35,-1.3631,-1.3584,-1.3632,-1.3668,-1.3673,-1.3687,-1.3655,-1.3716,-1.3823,-1.3837,-1.3696,-1.3695,-1.3693,0,-1.2675,-1.2819,-1.2923,-1.2965,-1.3079,-1.3127,-1.3176,-1.3258,-1.3314,-1.3397,-1.3434,-1.3526,-1.3577,-1.3648,-1.3702,-1.3677,-1.3829,-1.3806,-1.3858,-1.3857,-1.3891,-1.3888,-1.4007,-1.3919,-1.3918,-1.3918,-1.3918,0,-1.2775,-1.2861,-1.2943,-1.3006,-1.3103,-1.3156,-1.3251,-1.3302,-1.3375,-1.3449,-1.3481,-1.3551,-1.3617,-1.3695,-1.3738,-1.384,-1.3863,-1.3891,-1.3902,-1.3889,-1.3886,-1.3923,-1.3919,-1.3922,-1.3921,-1.392,-1.392,0,-1.2839,-1.2897,-1.3012,-1.3109,-1.3135,-1.3203,-1.3287,-1.335,-1.3398,-1.3492,-1.3517,-1.3594,-1.3688,-1.3748,-1.3868,-1.3896,-1.4008,-1.4016,-1.398,-1.3985,-1.4035,-1.403,-1.4184,-1.4207,-1.4101,-1.4102,-1.4103,0,-1.29,-1.2966,-1.307,-1.3122,-1.3171,-1.3255,-1.3312,-1.3366,-1.3425,-1.3525,-1.3576,-1.3672,-1.3751,-1.39,-1.3967,-1.4058,-1.407,-1.4117,-1.4084,-1.4069,-1.4072,-1.4068,-1.4075,-1.4123,-1.4124,-1.4125,-1.4125,0,-1.3002,-1.3027,-1.3108,-1.3199,-1.3265,-1.334,-1.3414,-1.3455,-1.3522,-1.3586,-1.3682,-1.3743,-1.3864,-1.3959,-1.4057,-1.4109,-1.4129,-1.4135,-1.4152,-1.4141,-1.4118,-1.4132,-1.3996,-1.4132,-1.4131,-1.4131,-1.413,-1.413,-1.3068,-1.3128,-1.321,-1.3299,-1.336,-1.3428,-1.3493,-1.3548,-1.3629,-1.3731,-1.3759,-1.3859,-1.3941,-1.4074,-1.4127,-1.4207,-1.4201,-1.4225,-1.4232,-1.4238,-1.4239,-1.4103,-1.4224,-1.4224,-1.4224,-1.4224,-1.4224,0,-1.3173,-1.3227,-1.3308,-1.341,-1.3479,-1.349,-1.3573,-1.3631,-1.3718,-1.3792,-1.3869,-1.3979,-1.4071,-1.4144,-1.4239,-1.4288,-1.43,-1.4311,-1.4309,-1.4321,-1.4238,-1.4214,-1.43,-1.43,-1.43,-1.43,-1.43,-1.43,-1.3236,-1.3339,-1.3373,-1.3507,-1.356,-1.3658,-1.3704,-1.3768,-1.3827,-1.3948,-1.4024,-1.407,-1.4145,-1.4244,-1.4329,-1.4348,-1.4382,-1.4392,-1.4413,-1.4335,-1.4327,-1.4319,-1.4297,-1.4398,-1.4399,-1.4489,-1.449,-1.4491]},{"header":{"parameterUnit":"m.s-1","parameterCategory":1,"la1":30.2991,"la2":30.254,"lo1":-89.0895,"lo2":-89.0444,"dy":0.0017,"dx":0.0017,"nx":28,"ny":28,"refTime":"2024-12-21T03:00:00:Z","depth":0,"parameterNumber":3,"parameterNumberName":"V-component_of_WINDS"},"data":[0,0,0,0,0,0,0,0,0,0,0,0,0,0,0,0,0,0,0,0,0,0,0,0,0,0,0,0,0,0,0,0,0,0,0,0,0,0,0,0,0,0,0,0,0,0,0,0,0,0,0,0,0,0,0,0,0,0,-7.5875,-7.5877,0,-7.605,-7.6052,-7.6054,-7.5973,-7.5969,-7.5965,-7.5961,-7.6136,-7.6144,-7.6153,0,0,0,0,0,0,0,0,0,0,0,0,0,-7.5468,-7.5476,-7.5875,-7.5877,-7.5879,-7.6049,-7.6052,-7.6054,-7.5974,-7.5969,-7.5964,-7.5959,-7.6133,-7.6143,-7.6154,0,0,0,0,0,0,0,0,0,0,0,0,0,-7.5644,-7.5478,-7.5874,-7.586,-7.586,-7.6049,-7.6052,-7.6055,-7.5975,-7.5969,-7.5962,-7.5956,-7.6129,-7.6142,-7.6155,-7.6367,0,0,-7.6195,-7.6201,0,0,0,0,0,0,0,0,-7.5634,-7.5659,-7.586,-7.5861,-7.5862,-7.5983,-7.5972,-7.6159,-7.5977,-7.5932,-7.596,-7.5953,-7.609,-7.6106,-7.6153,-7.6375,-7.6383,-7.6196,-7.6204,-7.621,-7.6214,0,0,0,0,0,0,0,-7.5622,-7.5651,-7.5944,-7.5863,-7.5864,-7.5843,-7.5861,-7.6007,-7.6045,-7.5935,-7.593,-7.5952,-7.6089,-7.6141,-7.6156,-7.6385,-7.6196,-7.6208,-7.6216,-7.6221,-7.6789,-7.6796,0,0,0,0,0,0,-7.561,-7.5641,-7.5938,-7.5949,-7.573,-7.5856,-7.5876,-7.5951,-7.6043,-7.6051,-7.5957,-7.5947,-7.6121,-7.6141,-7.6162,-7.6416,-7.621,-7.6222,-7.623,-7.6782,-7.679,-7.6798,0,0,0,0,0,0,-7.5602,-7.5638,-7.5931,-7.5794,-7.583,-7.587,-7.5955,-7.5958,-7.6009,-7.606,-7.6066,-7.6003,-7.6117,-7.6144,-7.6317,-7.6421,-7.6228,-7.624,-7.6773,-7.6784,-7.6794,-7.6926,0,0,0,0,0,0,-7.5591,-7.5635,-7.5717,-7.5796,-7.5837,-7.6085,-7.5961,-7.5966,-7.6032,-7.6021,-7.6105,-7.6112,-7.6114,-7.6298,-7.633,-7.6436,-7.625,-7.6764,-7.6778,-7.6791,-7.6913,-7.694,-7.6964,0,0,0,0,0,-7.5576,-7.5747,-7.5722,-7.5758,-7.5941,-7.6091,-7.6114,-7.6114,-7.6041,-7.6123,-7.6156,-7.6109,-7.6404,-7.6316,-7.6352,-7.6463,-7.6757,-7.6774,-7.679,-7.6901,-7.6935,-7.6963,0,0,0,0,0,0,-7.5678,-7.5757,-7.573,-7.5932,-7.6005,-7.6077,-7.6181,-7.615,-7.6245,-7.623,-7.6224,-7.6244,-7.6423,-7.646,-7.636,-7.6672,-7.6569,-7.6594,-7.6642,-7.6674,-7.67,-7.6687,-7.6261,0,0,0,0,0,-7.5724,-7.5841,-7.5902,-7.6074,-7.6113,-7.6141,-7.6206,-7.6199,-7.6275,-7.6305,-7.6351,-7.6425,-7.6534,-7.6606,-7.6709,-7.6917,-7.6934,-7.7011,-7.7037,-7.7057,-7.7079,-7.7191,-7.7226,-7.6852,-7.6852,-7.6851,0,0,-7.582,-7.5877,-7.5951,-7.6096,-7.6152,-7.6272,-7.6167,-7.6298,-7.6387,-7.6325,-7.6491,-7.6527,-7.6609,-7.68,-7.6887,-7.6837,-7.7185,-7.7078,-7.7094,-7.7104,-7.7211,-7.7247,-7.7278,-7.6863,-7.6861,-7.6859,0,0,-7.6056,-7.6112,-7.6261,-7.632,-7.6406,-7.6424,-7.646,-7.6537,-7.6558,-7.6725,-7.6681,-7.6785,-7.6973,-7.7034,-7.7089,-7.7347,-7.7308,-7.738,-7.7514,-7.7624,-7.7653,-7.7679,-7.7771,-7.7804,-7.7401,-7.7402,-7.7402,0,-7.6164,-7.6344,-7.6341,-7.6476,-7.6541,-7.6491,-7.6641,-7.6697,-7.6813,-7.6858,-7.6801,-7.7036,-7.7087,-7.7292,-7.7355,-7.7401,-7.7441,-7.7372,-7.7649,-7.7675,-7.77,-7.7787,-7.7822,-7.741,-7.7409,-7.7408,-7.7407,0,-7.6473,-7.6598,-7.6708,-7.6822,-7.6899,-7.7041,-7.7058,-7.7135,-7.7121,-7.7144,-7.7314,-7.7375,-7.7489,-7.7537,-7.7524,-7.774,-7.7706,-7.7649,-7.7546,-7.7744,-7.7826,-7.786,-7.7422,-7.7419,-7.7416,-7.7414,0,0,-7.678,-7.689,-7.693,-7.6982,-7.7073,-7.7169,-7.7308,-7.7421,-7.7488,-7.7568,-7.7684,-7.7844,-7.7792,-7.7855,-7.7848,-7.7944,-7.8145,-7.7876,-7.7877,-7.7924,-7.8385,-7.8428,-7.8467,-7.8119,-7.8125,-7.813,-7.8378,0,-7.7023,-7.7268,-7.7268,-7.7494,-7.7609,-7.7562,-7.7683,-7.7751,-7.7776,-7.7876,-7.7902,-7.8016,-7.7939,-7.7976,-7.8069,-7.8101,-7.8237,-7.8083,-7.8225,-7.8231,-7.8207,-7.851,-7.8556,-7.8788,-7.841,-7.8416,-7.842,0,-7.734,-7.7433,-7.767,-7.7744,-7.7793,-7.7901,-7.8005,-7.8101,-7.8177,-7.8188,-7.8258,-7.8237,-7.8376,-7.8268,-7.8459,-7.8354,-7.8412,-7.8436,-7.8445,-7.8459,-7.8338,-7.8533,-7.8861,-7.8896,-7.847,-7.8466,-7.8463,0,-7.754,-7.7724,-7.789,-7.7935,-7.8026,-7.8103,-7.8144,-7.8214,-7.8281,-7.8371,-7.8414,-7.8519,-7.8576,-7.8656,-7.8662,-7.8583,-7.8856,-7.8748,-7.8868,-7.8868,-7.8928,-7.8925,-7.9272,-7.8965,-7.8964,-7.8963,-7.8963,0,-7.7813,-7.796,-7.7981,-7.8083,-7.8246,-7.8244,-7.8404,-7.8438,-7.8501,-7.8607,-7.8572,-7.8673,-7.8675,-7.8777,-7.8783,-7.894,-7.8966,-7.8978,-7.8978,-7.8982,-7.8981,-7.902,-7.9005,-7.8973,-7.8971,-7.8969,-7.8967,0,-7.8064,-7.8085,-7.8262,-7.8334,-7.8355,-7.8472,-7.8532,-7.8629,-7.8649,-7.8785,-7.8816,-7.8849,-7.8967,-7.8982,-7.9119,-7.9123,-7.9313,-7.9295,-7.9288,-7.9285,-7.9405,-7.9394,-7.979,-7.9842,-7.9501,-7.9504,-7.9507,0,-7.8237,-7.835,-7.8433,-7.8503,-7.8549,-7.8661,-7.873,-7.8732,-7.8805,-7.8899,-7.8984,-7.9099,-7.9192,-7.9382,-7.9417,-7.9522,-7.9507,-7.9639,-7.9523,-7.9523,-7.951,-7.9503,-7.9514,-7.9662,-7.9665,-7.9668,-7.9671,0,-7.8542,-7.8546,-7.8648,-7.8754,-7.8838,-7.892,-7.8998,-7.9056,-7.9067,-7.9151,-7.9272,-7.9344,-7.9485,-7.9599,-7.9703,-7.9742,-7.9709,-7.9707,-7.974,-7.9746,-7.9738,-7.9744,-7.935,-7.9698,-7.9695,-7.9693,-7.9692,-7.9691,-7.876,-7.8858,-7.8932,-7.9046,-7.9105,-7.9178,-7.9272,-7.9305,-7.9407,-7.9523,-7.9516,-7.965,-7.9721,-7.9857,-7.9905,-8.0008,-7.9964,-8.0012,-8.0025,-8.0037,-8.0049,-7.9721,-8.0026,-8.0026,-8.0025,-8.0024,-8.0024,0,-7.9064,-7.9109,-7.9214,-7.9324,-7.9414,-7.9375,-7.9458,-7.9535,-7.9654,-7.9724,-7.9816,-7.9955,-8.0065,-8.0109,-8.0216,-8.0291,-8.0278,-8.0319,-8.0314,-8.0324,-8.0082,-8.0043,-8.0328,-8.0328,-8.0328,-8.0327,-8.0327,-8.0327,-7.9232,-7.9395,-7.9408,-7.9599,-7.9642,-7.9774,-7.9825,-7.9892,-7.9948,-8.0105,-8.0198,-8.0225,-8.0285,-8.0396,-8.0495,-8.0505,-8.0546,-8.0594,-8.0598,-8.0371,-8.0341,-8.0311,-8.0274,-8.0603,-8.0604,-8.083,-8.0832,-8.0834]}]]